Location: Carrer del Canonge
(41.4901°N, 2.2931°E)
Time: 05:04:24
(UTC+00:00)

Cosmos 1842 - Pass Details

Date: 18 September 2020
Orbit: 521 x 536 km, 82.5° (Epoch: 25 October)

Event Time Altitude Azimuth Distance (km) Brightness Sun altitude
Rises 19:02:58 0° 346° (NNW) 2,659 7.2 -13.5°
Reaches altitude 10° 19:05:09 10° 341° (NNW) 1,766 6.4 -13.9°
Maximum altitude 19:08:54 48° 266° (W) 686 4.2 -14.6°
Drops below altitude 10° 19:12:37 10° 192° (SSW) 1,755 5.8 -15.3°
Sets 19:14:47 0° 186° (S) 2,640 6.7 -15.7°
